Погода в Челно-Вершинах

Россия / Самарская область     54°24′52″N   51°04′50″E
темп.,
°C
ветер,
м/с
пор.,
м/с
влажн.,
%
обл.,
%
осадки,
мм/ч
давл.,
гПа
погр.,
м
15 мая, сб
сб1501:00+18ю410555 0.0 1021156
04:00+16ю495349 0.0 1021131
07:00+19ю512505 0.0 1021251
10:00+25ююз693875 0.0 1021461
13:00+28ююз683037 0.0 10211015
16:00+29ю583282 0.0 10201584
19:00+25ю4104728 0.0 1019181
22:00+20ю34500 0.0 101953
16 мая, вс
вс1601:00+19ююв46525 0.0 101983
04:00+17ююв46545 0.0 101984
07:00+20ююв411585 0.0 1019283
10:00+25ю610415 0.0 1019625
13:00+29ююз69315 0.0 10191586
16:00+30ююз593050 0.0 10183526
19:00+25юз344573 0.0 101761
22:00+21ю2252100 0.0 101811
17 мая, пн
пн1701:00+19ю41050100 0.0 1018151
04:00+19ю41251100 0.0 1018218
07:00+20ююз5125799 0.0 1019250
10:00+24ю484818 0.0 1019382
13:00+29ююз563344 0.0 10191308
16:00+30юз452714 0.0 10183199
19:00+26ссз114651 0.0 101812
22:00+24сз114195 0.0 101917
18 мая, вт
вт1801:00+22ю334553 0.0 101947
04:00+20ю224981 0.0 101921
07:00+21юв235614 0.0 1019103
10:00+26ю233991 0.0 1019514
13:00+30ююз232551 0.0 10182606
16:00+30зсз13205 0.0 10173447
19:00+27в223596 0.0 101711
22:00+22вюв3434100 0.0 101745
19 мая, ср
ср1901:00+20вюв333594 0.0 101726
04:00+18юв235184 0.0 101720
07:00+21вюв255962 0.0 1017146
10:00+26вюв574624 0.0 1017710
13:00+29юв673794 0.0 10161902
16:00+29юв56369 0.0 10153148
19:00+20зсз466987 0.9 101598
22:00+19в337241 1.3 101441